owner,sensor,date,latitude,longitude,vertical_datum,direction_of_sea_water_velocity,sea_water_speed,upward_sea_water_velocity,qcFlag 
TABS,ioos:station:wmo:42050:1,2003-02-01T00:00:00Z,28.8425,-94.2433,2.0,153.9616421,9.727306924,-99999.0,'11133222,11111222,99999999' 
TABS,ioos:station:wmo:42050:1,2003-02-01T00:30:00Z,28.8425,-94.2433,2.0,154.6878425,7.975725672,-99999.0,'11133222,11111222,99999999' 
TABS,ioos:station:wmo:42050:1,2003-02-01T01:00:00Z,28.8425,-94.2433,2.0,142.2786195,6.864757825,-99999.0,'11133222,11111222,99999999' 
TABS,ioos:station:wmo:42050:1,2003-02-01T01:30:00Z,28.8425,-94.2433,2.0,142.3552275,8.726797809,-99999.0,'11133222,11111222,99999999' 
TABS,ioos:station:wmo:42050:1,2003-02-01T02:00:00Z,28.8425,-94.2433,2.0,135.1954423,8.287339742,-99999.0,'11133222,11111222,99999999' 
TABS,ioos:station:wmo:42050:1,2003-02-01T02:30:00Z,28.8425,-94.2433,2.0,122.7923424,9.028853748,-99999.0,'11133222,11111222,99999999' 
TABS,ioos:station:wmo:42050:1,2003-02-01T03:00:00Z,28.8425,-94.2433,2.0,128.6705324,8.274086052,-99999.0,'11133222,11111222,99999999' 
TABS,ioos:station:wmo:42050:1,2003-02-01T03:30:00Z,28.8425,-94.2433,2.0,123.0878379,7.125517525,-99999.0,'11133222,11111222,99999999' 
TABS,ioos:station:wmo:42050:1,2003-02-01T04:00:00Z,28.8425,-94.2433,2.0,128.3407031,7.012310604,-99999.0,'11133222,11111222,99999999' 
TABS,ioos:station:wmo:42050:1,2003-02-01T04:30:00Z,28.8425,-94.2433,2.0,117.6066133,7.380243898,-99999.0,'11133222,11111222,99999999' 
TABS,ioos:station:wmo:42050:1,2003-02-01T05:00:00Z,28.8425,-94.2433,2.0,116.6649814,5.125075609,-99999.0,'11133222,11111222,99999999' 
TABS,ioos:station:wmo:42050:1,2003-02-01T05:30:00Z,28.8425,-94.2433,2.0,146.2453513,4.931287864,-99999.0,'11133222,11111222,99999999' 
TABS,ioos:station:wmo:42050:1,2003-02-01T06:00:00Z,28.8425,-94.2433,2.0,137.2596669,7.352557378,-99999.0,'11133222,11111222,99999999' 
TABS,ioos:station:wmo:42050:1,2003-02-01T06:30:00Z,28.8425,-94.2433,2.0,146.0137019,5.366796065,-99999.0,'11133222,11111222,99999999' 
TABS,ioos:station:wmo:42050:1,2003-02-01T07:00:00Z,28.8425,-94.2433,2.0,149.6417451,6.489869028,-99999.0,'11133222,11111222,99999999' 
TABS,ioos:station:wmo:42050:1,2003-02-01T07:30:00Z,28.8425,-94.2433,2.0,158.9513431,7.489739648,-99999.0,'11133222,11111222,99999999' 
TABS,ioos:station:wmo:42050:1,2003-02-01T08:00:00Z,28.8425,-94.2433,2.0,164.7575329,7.835636541,-99999.0,'11133222,11111222,99999999' 
TABS,ioos:station:wmo:42050:1,2003-02-01T08:30:00Z,28.8425,-94.2433,2.0,158.7748449,11.62883055,-99999.0,'11111222,11111222,99999999' 
TABS,ioos:station:wmo:42050:1,2003-02-01T09:00:00Z,28.8425,-94.2433,2.0,171.1801467,13.6311775,-99999.0,'11111222,11111222,99999999' 
TABS,ioos:station:wmo:42050:1,2003-02-02T05:30:00Z,28.8425,-94.2433,2.0,63.35684504,9.834236117,-99999.0,'11133222,11111222,99999999' 
TABS,ioos:station:wmo:42050:1,2003-02-02T06:00:00Z,28.8425,-94.2433,2.0,75.61732495,10.82941365,-99999.0,'11111222,11111222,99999999' 
TABS,ioos:station:wmo:42050:1,2003-02-02T06:30:00Z,28.8425,-94.2433,2.0,77.71120779,11.13513808,-99999.0,'11111222,11111222,99999999' 
TABS,ioos:station:wmo:42050:1,2003-02-02T07:00:00Z,28.8425,-94.2433,2.0,97.58244023,9.321507389,-99999.0,'11133222,11111222,99999999' 
TABS,ioos:station:wmo:42050:1,2003-02-02T07:30:00Z,28.8425,-94.2433,2.0,93.40877146,8.745473115,-99999.0,'11133222,11111222,99999999' 
TABS,ioos:station:wmo:42050:1,2003-02-02T08:00:00Z,28.8425,-94.2433,2.0,102.2760582,8.606799637,-99999.0,'11133222,11111222,99999999' 
TABS,ioos:station:wmo:42050:1,2003-02-02T08:30:00Z,28.8425,-94.2433,2.0,113.5869754,6.972531821,-99999.0,'11133222,11111222,99999999' 
TABS,ioos:station:wmo:42050:1,2003-02-02T09:00:00Z,28.8425,-94.2433,2.0,110.8171721,10.27046737,-99999.0,'11111222,11111222,99999999' 
TABS,ioos:station:wmo:42050:1,2003-02-02T09:30:00Z,28.8425,-94.2433,2.0,130.6762103,9.941931402,-99999.0,'11133222,11111222,99999999' 
TABS,ioos:station:wmo:42050:1,2003-02-02T10:00:00Z,28.8425,-94.2433,2.0,130.2829837,11.52243898,-99999.0,'11111222,11111222,99999999' 
TABS,ioos:station:wmo:42050:1,2003-02-02T10:30:00Z,28.8425,-94.2433,2.0,142.1248945,10.37559637,-99999.0,'11111222,11111222,99999999' 
TABS,ioos:station:wmo:42050:1,2003-02-02T11:00:00Z,28.8425,-94.2433,2.0,155.0673449,12.71497149,-99999.0,'11111222,11111222,99999999' 
TABS,ioos:station:wmo:42050:1,2003-02-02T11:30:00Z,28.8425,-94.2433,2.0,155.7305837,13.84342804,-99999.0,'11111222,11111222,99999999' 
TABS,ioos:station:wmo:42050:1,2003-02-02T12:00:00Z,28.8425,-94.2433,2.0,163.4048092,13.69023375,-99999.0,'11111222,11111222,99999999' 
TABS,ioos:station:wmo:42050:1,2003-02-02T12:30:00Z,28.8425,-94.2433,2.0,171.0946611,15.89155751,-99999.0,'11111222,11111222,99999999' 
TABS,ioos:station:wmo:42050:1,2003-02-02T13:00:00Z,28.8425,-94.2433,2.0,176.7406406,14.42332833,-99999.0,'11111222,11111222,99999999' 
TABS,ioos:station:wmo:42050:1,2003-02-02T13:30:00Z,28.8425,-94.2433,2.0,184.3255043,14.45116604,-99999.0,'11111222,11111222,99999999' 
TABS,ioos:station:wmo:42050:1,2003-02-02T14:00:00Z,28.8425,-94.2433,2.0,195.098246,13.47516976,-99999.0,'11111222,11111222,99999999' 
TABS,ioos:station:wmo:42050:1,2003-02-02T14:30:00Z,28.8425,-94.2433,2.0,196.7735256,8.835954957,-99999.0,'11133222,11111222,99999999' 
TABS,ioos:station:wmo:42050:1,2003-02-02T15:00:00Z,28.8425,-94.2433,2.0,234.3109538,9.702061637,-99999.0,'11133222,11111222,99999999' 
TABS,ioos:station:wmo:42050:1,2003-02-02T15:30:00Z,28.8425,-94.2433,2.0,253.1268946,6.95959769,-99999.0,'11133222,11111222,99999999' 
TABS,ioos:station:wmo:42050:1,2003-02-02T16:00:00Z,28.8425,-94.2433,2.0,298.8713713,6.668882965,-99999.0,'11133222,11111222,99999999' 
TABS,ioos:station:wmo:42050:1,2003-02-02T16:30:00Z,28.8425,-94.2433,2.0,324.1860778,7.70730822,-99999.0,'11133222,11111222,99999999' 
TABS,ioos:station:wmo:42050:1,2003-02-02T17:00:00Z,28.8425,-94.2433,2.0,331.4361397,9.8715399,-99999.0,'11133222,11111222,99999999' 
TABS,ioos:station:wmo:42050:1,2003-02-02T17:30:00Z,28.8425,-94.2433,2.0,348.961364,13.26544383,-99999.0,'11111222,11111222,99999999' 
TABS,ioos:station:wmo:42050:1,2003-02-02T18:00:00Z,28.8425,-94.2433,2.0,359.9598614,14.20000352,-99999.0,'11111222,11144222,99999999' 
TABS,ioos:station:wmo:42050:1,2003-02-02T18:30:00Z,28.8425,-94.2433,2.0,9.524578499,13.65827588,-99999.0,'11111222,11111222,99999999' 
TABS,ioos:station:wmo:42050:1,2003-02-02T19:00:00Z,28.8425,-94.2433,2.0,14.139548,16.16987631,-99999.0,'11111222,11111222,99999999' 
TABS,ioos:station:wmo:42050:1,2003-02-02T19:30:00Z,28.8425,-94.2433,2.0,14.07535535,17.84577541,-99999.0,'11111222,11111222,99999999' 
TABS,ioos:station:wmo:42050:1,2003-02-02T20:00:00Z,28.8425,-94.2433,2.0,21.0020037,17.29920518,-99999.0,'11111222,11111222,99999999' 
TABS,ioos:station:wmo:42050:1,2003-02-02T20:30:00Z,28.8425,-94.2433,2.0,21.15069813,19.28941938,-99999.0,'11111222,11111222,99999999' 
TABS,ioos:station:wmo:42050:1,2003-02-02T21:00:00Z,28.8425,-94.2433,2.0,29.34082682,18.28565558,-99999.0,'11111222,11111222,99999999' 
TABS,ioos:station:wmo:42050:1,2003-02-02T21:30:00Z,28.8425,-94.2433,2.0,36.20434379,20.48538259,-99999.0,'11111222,11111222,99999999' 
TABS,ioos:station:wmo:42050:1,2003-02-02T22:00:00Z,28.8425,-94.2433,2.0,44.22689792,16.24372186,-99999.0,'11111222,11111222,99999999' 
TABS,ioos:station:wmo:42050:1,2003-02-02T22:30:00Z,28.8425,-94.2433,2.0,46.70857399,18.02509362,-99999.0,'11111222,11111222,99999999' 
TABS,ioos:station:wmo:42050:1,2003-02-02T23:00:00Z,28.8425,-94.2433,2.0,54.2248766,15.70286598,-99999.0,'11111222,11111222,99999999' 
TABS,ioos:station:wmo:42050:1,2003-02-02T23:30:00Z,28.8425,-94.2433,2.0,60.74888761,16.98594713,-99999.0,'11111222,11111222,99999999' 
TABS,ioos:station:wmo:42050:1,2003-02-03T00:00:00Z,28.8425,-94.2433,2.0,69.41957495,16.47120214,-99999.0,'11111222,11111222,99999999' 
TABS,ioos:station:wmo:42050:1,2003-02-03T00:30:00Z,28.8425,-94.2433,2.0,76.2615553,16.80066963,-99999.0,'11111222,11111222,99999999' 
TABS,ioos:station:wmo:42050:1,2003-02-03T01:00:00Z,28.8425,-94.2433,2.0,74.20434586,15.24570103,-99999.0,'11111222,11111222,99999999' 
TABS,ioos:station:wmo:42050:1,2003-02-03T01:30:00Z,28.8425,-94.2433,2.0,77.06583463,15.63673879,-99999.0,'11111222,11111222,99999999' 
TABS,ioos:station:wmo:42050:1,2003-02-03T02:00:00Z,28.8425,-94.2433,2.0,80.56784917,15.62119394,-99999.0,'11111222,11111222,99999999' 
TABS,ioos:station:wmo:42050:1,2003-02-03T02:30:00Z,28.8425,-94.2433,2.0,82.0420752,14.59050719,-99999.0,'11111222,11111222,99999999' 
TABS,ioos:station:wmo:42050:1,2003-02-03T03:00:00Z,28.8425,-94.2433,2.0,77.33889932,15.96829358,-99999.0,'11111222,11111222,99999999' 
TABS,ioos:station:wmo:42050:1,2003-02-03T03:30:00Z,28.8425,-94.2433,2.0,72.76647055,16.74161581,-99999.0,'11111222,11111222,99999999' 
TABS,ioos:station:wmo:42050:1,2003-02-03T04:00:00Z,28.8425,-94.2433,2.0,67.73946984,16.68340493,-99999.0,'11111222,11111222,99999999' 
TABS,ioos:station:wmo:42050:1,2003-02-03T04:30:00Z,28.8425,-94.2433,2.0,59.30208426,17.74686451,-99999.0,'11111222,11111222,99999999' 
TABS,ioos:station:wmo:42050:1,2003-02-03T05:00:00Z,28.8425,-94.2433,2.0,64.85695128,18.92296224,-99999.0,'11111222,11111222,99999999' 
TABS,ioos:station:wmo:42050:1,2003-02-03T05:30:00Z,28.8425,-94.2433,2.0,62.33898978,20.80818349,-99999.0,'11111222,11111222,99999999' 
TABS,ioos:station:wmo:42050:1,2003-02-03T06:00:00Z,28.8425,-94.2433,2.0,58.58192591,16.65132127,-99999.0,'11111222,11111222,99999999' 
TABS,ioos:station:wmo:42050:1,2003-02-03T06:30:00Z,28.8425,-94.2433,2.0,56.59395824,17.90871576,-99999.0,'11111222,11111222,99999999' 
TABS,ioos:station:wmo:42050:1,2003-02-03T07:00:00Z,28.8425,-94.2433,2.0,66.25194143,15.19679242,-99999.0,'11111222,11111222,99999999' 
TABS,ioos:station:wmo:42050:1,2003-02-03T07:30:00Z,28.8425,-94.2433,2.0,63.18076412,17.13292153,-99999.0,'11111222,11111222,99999999' 
TABS,ioos:station:wmo:42050:1,2003-02-03T08:00:00Z,28.8425,-94.2433,2.0,64.11746602,15.39418397,-99999.0,'11111222,11111222,99999999' 
TABS,ioos:station:wmo:42050:1,2003-02-03T08:30:00Z,28.8425,-94.2433,2.0,74.51252717,13.40681916,-99999.0,'11111222,11111222,99999999' 
TABS,ioos:station:wmo:42050:1,2003-02-03T09:00:00Z,28.8425,-94.2433,2.0,74.9641153,13.06738306,-99999.0,'11111222,11111222,99999999' 
TABS,ioos:station:wmo:42050:1,2003-02-03T09:30:00Z,28.8425,-94.2433,2.0,76.59526819,12.98372058,-99999.0,'11111222,11111222,99999999' 
TABS,ioos:station:wmo:42050:1,2003-02-03T10:00:00Z,28.8425,-94.2433,2.0,83.51334716,10.79913422,-99999.0,'11111222,11111222,99999999' 
TABS,ioos:station:wmo:42050:1,2003-02-03T10:30:00Z,28.8425,-94.2433,2.0,97.71565552,10.94912782,-99999.0,'11111222,11111222,99999999' 
TABS,ioos:station:wmo:42050:1,2003-02-03T11:00:00Z,28.8425,-94.2433,2.0,117.4034021,9.168860344,-99999.0,'11133222,11111222,99999999' 
TABS,ioos:station:wmo:42050:1,2003-02-03T11:30:00Z,28.8425,-94.2433,2.0,128.4161334,8.449076873,-99999.0,'11133222,11111222,99999999' 
TABS,ioos:station:wmo:42050:1,2003-02-03T12:00:00Z,28.8425,-94.2433,2.0,134.6502308,8.110665817,-99999.0,'11133222,11111222,99999999' 
TABS,ioos:station:wmo:42050:1,2003-02-03T12:30:00Z,28.8425,-94.2433,2.0,161.2303843,7.583271062,-99999.0,'11133222,11111222,99999999' 
TABS,ioos:station:wmo:42050:1,2003-02-03T13:00:00Z,28.8425,-94.2433,2.0,157.9091833,8.828068872,-99999.0,'11133222,11111222,99999999' 
TABS,ioos:station:wmo:42050:1,2003-02-03T13:30:00Z,28.8425,-94.2433,2.0,155.3229841,8.55089469,-99999.0,'11133222,11111222,99999999' 
TABS,ioos:station:wmo:42050:1,2003-02-03T14:00:00Z,28.8425,-94.2433,2.0,185.4401089,3.79710416,-99999.0,'11133222,11111222,99999999' 
TABS,ioos:station:wmo:42050:1,2003-02-03T14:30:00Z,28.8425,-94.2433,2.0,175.5556938,1.93582024,-99999.0,'11133222,11111222,99999999' 
TABS,ioos:station:wmo:42050:1,2003-02-03T15:00:00Z,28.8425,-94.2433,2.0,215.6761143,0.480104155,-99999.0,'11133222,11111222,99999999' 
TABS,ioos:station:wmo:42050:1,2003-02-03T15:30:00Z,28.8425,-94.2433,2.0,16.11073864,4.288414625,-99999.0,'11133222,11111222,99999999' 
TABS,ioos:station:wmo:42050:1,2003-02-03T16:00:00Z,28.8425,-94.2433,2.0,22.38363617,9.322387033,-99999.0,'11133222,11111222,99999999' 
TABS,ioos:station:wmo:42050:1,2003-02-03T16:30:00Z,28.8425,-94.2433,2.0,14.59675185,10.91219959,-99999.0,'11111222,11111222,99999999' 
TABS,ioos:station:wmo:42050:1,2003-02-03T17:00:00Z,28.8425,-94.2433,2.0,17.99467146,9.872922566,-99999.0,'11133222,11111222,99999999' 
TABS,ioos:station:wmo:42050:1,2003-02-03T17:30:00Z,28.8425,-94.2433,2.0,19.10045505,12.25465218,-99999.0,'11111222,11111222,99999999' 
TABS,ioos:station:wmo:42050:1,2003-02-03T18:00:00Z,28.8425,-94.2433,2.0,25.00439646,8.209415326,-99999.0,'11133222,11111222,99999999' 
TABS,ioos:station:wmo:42050:1,2003-02-03T18:30:00Z,28.8425,-94.2433,2.0,2.079486368,12.67834768,-99999.0,'11111222,11111222,99999999' 
TABS,ioos:station:wmo:42050:1,2003-02-03T19:00:00Z,28.8425,-94.2433,2.0,13.05476273,12.17464989,-99999.0,'11111222,11111222,99999999' 
TABS,ioos:station:wmo:42050:1,2003-02-03T19:30:00Z,28.8425,-94.2433,2.0,15.21022022,13.37864717,-99999.0,'11111222,11111222,99999999' 
TABS,ioos:station:wmo:42050:1,2003-02-03T20:00:00Z,28.8425,-94.2433,2.0,63.96049367,15.60393861,-99999.0,'11111222,11111222,99999999' 
TABS,ioos:station:wmo:42050:1,2003-02-03T20:30:00Z,28.8425,-94.2433,2.0,62.33955994,14.97097525,-99999.0,'11111222,11111222,99999999' 
TABS,ioos:station:wmo:42050:1,2003-02-03T21:00:00Z,28.8425,-94.2433,2.0,75.52296109,21.12062736,-99999.0,'11111222,11111222,99999999' 
TABS,ioos:station:wmo:42050:1,2003-02-03T21:30:00Z,28.8425,-94.2433,2.0,80.29851645,17.32780425,-99999.0,'11111222,11111222,99999999' 
TABS,ioos:station:wmo:42050:1,2003-02-03T22:00:00Z,28.8425,-94.2433,2.0,92.47477083,18.52727989,-99999.0,'11111222,11111222,99999999' 
TABS,ioos:station:wmo:42050:1,2003-02-03T22:30:00Z,28.8425,-94.2433,2.0,107.1930215,23.78275215,-99999.0,'11111222,11111222,99999999' 
TABS,ioos:station:wmo:42050:1,2003-02-03T23:00:00Z,28.8425,-94.2433,2.0,104.5481252,34.47538977,-99999.0,'11111222,11111222,99999999' 
TABS,ioos:station:wmo:42050:1,2003-02-03T23:30:00Z,28.8425,-94.2433,2.0,116.5926281,27.81221674,-99999.0,'11111222,11111222,99999999' 
TABS,ioos:station:wmo:42050:1,2003-02-04T00:00:00Z,28.8425,-94.2433,2.0,118.8257375,26.75525369,-99999.0,'11111222,11111222,99999999' 
TABS,ioos:station:wmo:42050:1,2003-02-04T00:30:00Z,28.8425,-94.2433,2.0,126.9872759,25.3640533,-99999.0,'11111222,11111222,99999999' 
TABS,ioos:station:wmo:42050:1,2003-02-04T01:00:00Z,28.8425,-94.2433,2.0,136.8343595,17.8919004,-99999.0,'11111222,11111222,99999999' 
TABS,ioos:station:wmo:42050:1,2003-02-04T01:30:00Z,28.8425,-94.2433,2.0,145.8161979,21.89205564,-99999.0,'11111222,11111222,99999999' 
TABS,ioos:station:wmo:42050:1,2003-02-04T02:00:00Z,28.8425,-94.2433,2.0,156.5593363,19.28120847,-99999.0,'11111222,11111222,99999999' 
TABS,ioos:station:wmo:42050:1,2003-02-04T02:30:00Z,28.8425,-94.2433,2.0,173.924807,19.08718942,-99999.0,'11111222,11111222,99999999' 
TABS,ioos:station:wmo:42050:1,2003-02-04T03:00:00Z,28.8425,-94.2433,2.0,171.9783501,20.13702312,-99999.0,'11111222,11111222,99999999' 
TABS,ioos:station:wmo:42050:1,2003-02-04T03:30:00Z,28.8425,-94.2433,2.0,169.4094916,22.79833766,-99999.0,'11111222,11111222,99999999' 
TABS,ioos:station:wmo:42050:1,2003-02-04T04:00:00Z,28.8425,-94.2433,2.0,166.2266917,28.52006487,-99999.0,'11111222,11111222,99999999' 
TABS,ioos:station:wmo:42050:1,2003-02-04T04:30:00Z,28.8425,-94.2433,2.0,193.917682,23.48962537,-99999.0,'11111222,11111222,99999999' 
TABS,ioos:station:wmo:42050:1,2003-02-04T05:00:00Z,28.8425,-94.2433,2.0,180.7903449,24.64234567,-99999.0,'11111222,11111222,99999999' 
TABS,ioos:station:wmo:42050:1,2003-02-04T05:30:00Z,28.8425,-94.2433,2.0,193.1393626,13.3289647,-99999.0,'11111222,11111222,99999999' 
TABS,ioos:station:wmo:42050:1,2003-02-04T06:00:00Z,28.8425,-94.2433,2.0,192.5212454,16.97372381,-99999.0,'11111222,11111222,99999999' 
TABS,ioos:station:wmo:42050:1,2003-02-04T06:30:00Z,28.8425,-94.2433,2.0,196.2207236,12.85160301,-99999.0,'11111222,11111222,99999999' 
TABS,ioos:station:wmo:42050:1,2003-02-04T07:00:00Z,28.8425,-94.2433,2.0,202.7639324,11.60388297,-99999.0,'11111222,11111222,99999999' 
TABS,ioos:station:wmo:42050:1,2003-02-04T07:30:00Z,28.8425,-94.2433,2.0,184.81058,13.11620753,-99999.0,'11111222,11111222,99999999' 
TABS,ioos:station:wmo:42050:1,2003-02-04T08:00:00Z,28.8425,-94.2433,2.0,209.8399017,14.16850733,-99999.0,'11111222,11111222,99999999' 
TABS,ioos:station:wmo:42050:1,2003-02-04T08:30:00Z,28.8425,-94.2433,2.0,183.9997563,19.06644435,-99999.0,'11111222,11111222,99999999' 
TABS,ioos:station:wmo:42050:1,2003-02-04T09:00:00Z,28.8425,-94.2433,2.0,187.0558691,12.37371407,-99999.0,'11111222,11111222,99999999' 
TABS,ioos:station:wmo:42050:1,2003-02-04T09:30:00Z,28.8425,-94.2433,2.0,209.0756204,13.06670961,-99999.0,'11111222,11111222,99999999' 
TABS,ioos:station:wmo:42050:1,2003-02-04T10:00:00Z,28.8425,-94.2433,2.0,198.1289583,14.81548177,-99999.0,'11111222,11111222,99999999' 
TABS,ioos:station:wmo:42050:1,2003-02-04T10:30:00Z,28.8425,-94.2433,2.0,210.8319326,15.68701692,-99999.0,'11111222,11111222,99999999' 
TABS,ioos:station:wmo:42050:1,2003-02-04T11:00:00Z,28.8425,-94.2433,2.0,192.6823747,12.52560977,-99999.0,'11111222,11111222,99999999' 
TABS,ioos:station:wmo:42050:1,2003-02-04T11:30:00Z,28.8425,-94.2433,2.0,215.1729948,12.4294489,-99999.0,'11111222,11111222,99999999' 
TABS,ioos:station:wmo:42050:1,2003-02-04T12:00:00Z,28.8425,-94.2433,2.0,202.7415134,14.82234125,-99999.0,'11111222,11111222,99999999' 
TABS,ioos:station:wmo:42050:1,2003-02-04T12:30:00Z,28.8425,-94.2433,2.0,221.7477463,9.972121138,-99999.0,'11133222,11111222,99999999' 
TABS,ioos:station:wmo:42050:1,2003-02-04T13:00:00Z,28.8425,-94.2433,2.0,209.8180829,10.63846793,-99999.0,'11111222,11111222,99999999' 
TABS,ioos:station:wmo:42050:1,2003-02-04T13:30:00Z,28.8425,-94.2433,2.0,206.61075,16.72132172,-99999.0,'11111222,11111222,99999999' 
TABS,ioos:station:wmo:42050:1,2003-02-04T14:00:00Z,28.8425,-94.2433,2.0,218.946907,13.07659359,-99999.0,'11111222,11111222,99999999' 
TABS,ioos:station:wmo:42050:1,2003-02-04T14:30:00Z,28.8425,-94.2433,2.0,227.2666587,12.33452472,-99999.0,'11111222,11111222,99999999' 
TABS,ioos:station:wmo:42050:1,2003-02-04T15:00:00Z,28.8425,-94.2433,2.0,224.566728,14.03647035,-99999.0,'11111222,11111222,99999999' 
TABS,ioos:station:wmo:42050:1,2003-02-04T15:30:00Z,28.8425,-94.2433,2.0,246.1483499,13.60160285,-99999.0,'11111222,11111222,99999999' 
TABS,ioos:station:wmo:42050:1,2003-02-04T16:00:00Z,28.8425,-94.2433,2.0,244.8805808,11.51941839,-99999.0,'11111222,11111222,99999999' 
TABS,ioos:station:wmo:42050:1,2003-02-04T16:30:00Z,28.8425,-94.2433,2.0,259.9277739,11.43624064,-99999.0,'11111222,11111222,99999999' 
TABS,ioos:station:wmo:42050:1,2003-02-04T17:00:00Z,28.8425,-94.2433,2.0,260.1907218,12.50277169,-99999.0,'11111222,11111222,99999999' 
TABS,ioos:station:wmo:42050:1,2003-02-04T17:30:00Z,28.8425,-94.2433,2.0,262.5337996,12.92960943,-99999.0,'11111222,11111222,99999999' 
TABS,ioos:station:wmo:42050:1,2003-02-04T18:00:00Z,28.8425,-94.2433,2.0,271.3246929,13.41358267,-99999.0,'11111222,11111222,99999999' 
TABS,ioos:station:wmo:42050:1,2003-02-04T18:30:00Z,28.8425,-94.2433,2.0,289.4579091,14.52981762,-99999.0,'11111222,11111222,99999999' 
TABS,ioos:station:wmo:42050:1,2003-02-04T19:00:00Z,28.8425,-94.2433,2.0,288.6950085,15.34985342,-99999.0,'11111222,11111222,99999999' 
TABS,ioos:station:wmo:42050:1,2003-02-04T19:30:00Z,28.8425,-94.2433,2.0,291.2935811,15.28332752,-99999.0,'11111222,11111222,99999999' 
TABS,ioos:station:wmo:42050:1,2003-02-04T20:00:00Z,28.8425,-94.2433,2.0,295.4549566,14.07645552,-99999.0,'11111222,11111222,99999999' 
TABS,ioos:station:wmo:42050:1,2003-02-04T20:30:00Z,28.8425,-94.2433,2.0,296.2835149,14.54356215,-99999.0,'11111222,11111222,99999999' 
TABS,ioos:station:wmo:42050:1,2003-02-04T21:00:00Z,28.8425,-94.2433,2.0,312.4089622,13.13733611,-99999.0,'11111222,11111222,99999999' 
TABS,ioos:station:wmo:42050:1,2003-02-04T21:30:00Z,28.8425,-94.2433,2.0,295.7296175,12.87664941,-99999.0,'11111222,11111222,99999999' 
TABS,ioos:station:wmo:42050:1,2003-02-04T22:00:00Z,28.8425,-94.2433,2.0,308.9426341,13.93711591,-99999.0,'11111222,11111222,99999999' 
TABS,ioos:station:wmo:42050:1,2003-02-04T22:30:00Z,28.8425,-94.2433,2.0,296.0192503,14.54404689,-99999.0,'11111222,11111222,99999999' 
TABS,ioos:station:wmo:42050:1,2003-02-04T23:00:00Z,28.8425,-94.2433,2.0,293.9185043,14.42908868,-99999.0,'11111222,11111222,99999999' 
TABS,ioos:station:wmo:42050:1,2003-02-04T23:30:00Z,28.8425,-94.2433,2.0,296.3467254,11.71708155,-99999.0,'11111222,11111222,99999999' 
TABS,ioos:station:wmo:42050:1,2003-02-05T00:00:00Z,28.8425,-94.2433,2.0,300.5323721,10.92477002,-99999.0,'11111222,11111222,99999999' 
TABS,ioos:station:wmo:42050:1,2003-02-05T00:30:00Z,28.8425,-94.2433,2.0,301.0834708,8.231949951,-99999.0,'11133222,11111222,99999999' 
TABS,ioos:station:wmo:42050:1,2003-02-05T01:00:00Z,28.8425,-94.2433,2.0,298.1240905,5.918825897,-99999.0,'11133222,11111222,99999999' 
TABS,ioos:station:wmo:42050:1,2003-02-05T01:30:00Z,28.8425,-94.2433,2.0,260.8126349,4.447043962,-99999.0,'11133222,11111222,99999999' 
TABS,ioos:station:wmo:42050:1,2003-02-05T02:00:00Z,28.8425,-94.2433,2.0,259.2424516,6.911454261,-99999.0,'11133222,11111222,99999999' 
TABS,ioos:station:wmo:42050:1,2003-02-05T02:30:00Z,28.8425,-94.2433,2.0,241.9523123,5.359412281,-99999.0,'11133222,11111222,99999999' 
TABS,ioos:station:wmo:42050:1,2003-02-05T03:00:00Z,28.8425,-94.2433,2.0,244.8742126,7.654240655,-99999.0,'11133222,11111222,99999999' 
TABS,ioos:station:wmo:42050:1,2003-02-05T03:30:00Z,28.8425,-94.2433,2.0,246.9144994,8.620284218,-99999.0,'11133222,11111222,99999999' 
TABS,ioos:station:wmo:42050:1,2003-02-05T04:00:00Z,28.8425,-94.2433,2.0,246.400107,7.693432264,-99999.0,'11133222,11111222,99999999' 
TABS,ioos:station:wmo:42050:1,2003-02-05T04:30:00Z,28.8425,-94.2433,2.0,258.9355756,5.940412444,-99999.0,'11133222,11111222,99999999' 
TABS,ioos:station:wmo:42050:1,2003-02-05T05:00:00Z,28.8425,-94.2433,2.0,267.4371319,6.486485952,-99999.0,'11133222,11111222,99999999' 
TABS,ioos:station:wmo:42050:1,2003-02-05T05:30:00Z,28.8425,-94.2433,2.0,270.3855959,5.950134452,-99999.0,'11133222,11111222,99999999' 
TABS,ioos:station:wmo:42050:1,2003-02-05T06:00:00Z,28.8425,-94.2433,2.0,241.8540177,8.755301251,-99999.0,'11133222,11111222,99999999' 
TABS,ioos:station:wmo:42050:1,2003-02-05T06:30:00Z,28.8425,-94.2433,2.0,263.8376811,7.453059774,-99999.0,'11133222,11111222,99999999' 
TABS,ioos:station:wmo:42050:1,2003-02-05T07:00:00Z,28.8425,-94.2433,2.0,247.8986738,7.814166622,-99999.0,'11133222,11111222,99999999' 
TABS,ioos:station:wmo:42050:1,2003-02-05T07:30:00Z,28.8425,-94.2433,2.0,237.4298957,6.241570315,-99999.0,'11133222,11111222,99999999' 
TABS,ioos:station:wmo:42050:1,2003-02-05T08:00:00Z,28.8425,-94.2433,2.0,265.8598456,6.787709481,-99999.0,'11133222,11111222,99999999' 
TABS,ioos:station:wmo:42050:1,2003-02-05T08:30:00Z,28.8425,-94.2433,2.0,254.0225187,7.447690917,-99999.0,'11133222,11111222,99999999' 
TABS,ioos:station:wmo:42050:1,2003-02-05T09:00:00Z,28.8425,-94.2433,2.0,260.5149459,8.435312679,-99999.0,'11133222,11111222,99999999' 
TABS,ioos:station:wmo:42050:1,2003-02-05T09:30:00Z,28.8425,-94.2433,2.0,246.9704308,10.6595028,-99999.0,'11111222,11111222,99999999' 
TABS,ioos:station:wmo:42050:1,2003-02-05T10:00:00Z,28.8425,-94.2433,2.0,269.9341731,17.52001142,-99999.0,'11111222,11111222,99999999' 
TABS,ioos:station:wmo:42050:1,2003-02-05T10:30:00Z,28.8425,-94.2433,2.0,269.3322723,12.02081528,-99999.0,'11111222,11111222,99999999' 
TABS,ioos:station:wmo:42050:1,2003-02-05T11:00:00Z,28.8425,-94.2433,2.0,268.5860773,15.4046876,-99999.0,'11111222,11111222,99999999' 
TABS,ioos:station:wmo:42050:1,2003-02-05T11:30:00Z,28.8425,-94.2433,2.0,252.3387401,16.15122596,-99999.0,'11111222,11111222,99999999' 
TABS,ioos:station:wmo:42050:1,2003-02-05T12:00:00Z,28.8425,-94.2433,2.0,254.3151552,15.68399184,-99999.0,'11111222,11111222,99999999' 